Flag for Luxembourg Weather past 2 weeks in Esch-sur-Alzette, Luxembourg

Now
70 °F

Clear.


Feels Like: 70 °F
Forecast: 66 / 86 °F
Wind: 5 mph from Southeast

Location: Luxembourg Airport

Current Time: Aug 30, 2015 at 6:44:48 AM

Latest Report: Aug 30, 2015 at 5:50 AM


Visibility: 10 mi

Pressure: 30.07 "Hg

Humidity: 83%

Dew point: 64 °F

Location of Esch-sur-AlzetteLocation

Historic Weather in Esch-sur-Alzette — Graph

°F

Esch-sur-Alzette temperature yesterday

Maximum temperature yesterday: 84 °F (at 4:20 PM)
Minimum temperature yesterday: 57 °F (at 2:50 AM)
Average temperature yesterday: 71 °F

Past Weeks' High & Low Weather Summary

 TemperatureHumidityPressure
High84 °F (Aug 29, 4:20 PM)100% (Aug 15, 5:50 AM)30.27 "Hg (Aug 15, 5:50 AM)
Low48 °F (Aug 19, 3:50 AM)32% (Aug 22, 3:20 PM)29.62 "Hg (Aug 24, 12:20 PM)
Average63 °F73%30.00 "Hg
* Reported Aug 15 5:50 AM — Aug 30 5:20 AM, Esch-sur-Alzette, Weather by CustomWeather, © 2015

Note: Actual official high and low records may vary slightly from our data, if they occured in-between our weather recording intervals... More about our weather records

Advertising

Esch-sur-Alzette weather history for previous 24 hours

 ConditionsComfort  
Time TempWeatherWind HumidityBarometerVisibility
5:20 AM
Sun, Aug 30
68 °FClear.5 mph88%30.07 "Hg10 mi
4:50 AM70 °FMild.3 mph83%30.07 "HgN/A
4:20 AM70 °FMild.2 mph88%30.07 "HgN/A
3:50 AM70 °FMild.3 mph88%30.07 "HgN/A
3:20 AM70 °FMild.3 mph88%30.09 "HgN/A
2:50 AM70 °FMild.3 mph88%30.09 "HgN/A
2:20 AM72 °FMild.2 mph83%30.09 "HgN/A
1:50 AM72 °FClear.2 mph83%30.09 "Hg10 mi
1:20 AM72 °FMild.3 mph83%30.09 "HgN/A
12:50 AM73 °FClear.2 mph78%30.09 "Hg10 mi
12:20 AM73 °FClear.3 mph78%30.09 "Hg10 mi
11:50 PM
Sat, Aug 29
73 °FPassing clouds.5 mph78%30.09 "HgN/A
10:50 PM73 °FPassing clouds.5 mph78%30.12 "HgN/A
10:20 PM75 °FClear.8 mph74%30.12 "Hg10 mi
9:50 PM77 °FClear.7 mph69%30.12 "Hg10 mi
9:20 PM77 °FSunny.7 mph69%30.09 "Hg10 mi
8:50 PM79 °FSunny.5 mph65%30.09 "Hg10 mi
8:20 PM79 °FSunny.3 mph65%30.09 "Hg10 mi
7:50 PM81 °FSunny.5 mph62%30.09 "Hg10 mi
7:20 PM82 °FPassing clouds.3 mph58%30.09 "HgN/A
6:50 PM84 °FPassing clouds.3 mph51%30.09 "HgN/A
6:20 PM84 °FPassing clouds.6 mph55%30.12 "HgN/A
5:50 PM84 °FPassing clouds.5 mph51%30.12 "HgN/A
5:20 PM84 °FWarm.3 mph51%30.12 "HgN/A
4:50 PM84 °FPassing clouds.6 mph51%30.12 "HgN/A
4:20 PM84 °FPassing clouds.7 mph51%30.12 "HgN/A
3:50 PM82 °FPassing clouds.5 mph55%30.15 "HgN/A
3:20 PM82 °FPassing clouds.5 mph55%30.15 "HgN/A
2:50 PM81 °FPassing clouds.3 mph62%30.15 "HgN/A
2:20 PM79 °FPassing clouds.3 mph61%30.15 "HgN/A
1:50 PM79 °FPassing clouds.7 mph61%30.18 "HgN/A
1:20 PM77 °FPassing clouds.5 mph69%30.18 "HgN/A
12:50 PM77 °FPassing clouds.6 mph65%30.18 "HgN/A
11:50 AM72 °FPassing clouds.5 mph73%30.21 "HgN/A
11:20 AM68 °FPartly sunny.2 mph83%30.21 "HgN/A
10:50 AM66 °FPartly sunny.3 mph88%30.21 "HgN/A
9:50 AM64 °FSunny.3 mph88%30.18 "Hg10 mi
9:20 AM63 °FPassing clouds.5 mph94%30.18 "HgN/A
8:50 AM61 °FPartly sunny.6 mph94%30.18 "Hg6 mi
7:50 AM59 °FPartly sunny.6 mph94%30.18 "Hg5 mi
7:20 AM59 °FPassing clouds.7 mph100%30.18 "Hg5 mi
6:50 AM59 °FPartly cloudy.6 mph100%30.18 "Hg5 mi
6:20 AM59 °FPartly cloudy.6 mph100%30.18 "Hg5 mi
Weather by CustomWeather, © 2015

See weather overviewHow to use our weather pages